Flag for Germany Weather past 2 weeks in Tübingen, Baden-Württemberg, Germany

Now
88 °F

Sunny.


Feels Like: 87 °F
Forecast: 61 / 91 °F
Wind: 8 mph from East

Location: Stuttgart-Echterdingen

Current Time: Jul 1, 2015 at 5:42:36 PM

Latest Report: Jul 1, 2015 at 5:20 PM


Visibility: 10 mi

Pressure: 30.09 "Hg

Humidity: 35%

Dew point: 57 °F

Location of TübingenLocation

Historic Weather in Tübingen — Graph

°F

Tübingen temperature yesterday

Maximum temperature yesterday: 84 °F (at 4:20 PM)
Minimum temperature yesterday: 57 °F (at 6:20 AM)
Average temperature yesterday: 72 °F

Past Weeks' High & Low Weather Summary

 TemperatureHumidityPressure
High88 °F (Jul 1, 3:20 PM)100% (Jun 18, 3:50 PM)30.24 "Hg (Jun 18, 3:50 PM)
Low46 °F (Jun 24, 4:50 AM)29% (Jul 1, 1:50 PM)29.74 "Hg (Jun 22, 8:50 PM)
Average62 °F71%30.11 "Hg
* Reported Jun 16 4:20 PM — Jul 1 4:20 PM, Tübingen, Weather by CustomWeather, © 2015

Note: Actual official high and low records may vary slightly from our data, if they occured in-between our weather recording intervals... More about our weather records

Advertising

Tübingen weather history for previous 24 hours

 ConditionsComfort  
Time TempWeatherWind HumidityBarometerVisibility
4:20 PM
Wed, Jul 1
88 °FPassing clouds.7 mph31%30.09 "HgN/A
3:50 PM88 °FPassing clouds.6 mph29%30.09 "HgN/A
3:20 PM88 °FSunny.5 mph31%30.09 "Hg10 mi
2:50 PM86 °FPassing clouds.7 mph31%30.09 "HgN/A
2:20 PM86 °FPassing clouds.6 mph31%30.12 "HgN/A
1:50 PM86 °FPassing clouds.6 mph29%30.12 "HgN/A
1:20 PM86 °FSunny.6 mph35%30.12 "Hg10 mi
12:50 PM84 °FPassing clouds.6 mph43%30.12 "HgN/A
12:20 PM84 °FPassing clouds.7 mph43%30.12 "HgN/A
11:50 AM82 °FPassing clouds.7 mph45%30.12 "HgN/A
11:20 AM81 °FSunny.5 mph48%30.12 "Hg10 mi
10:50 AM79 °FSunny.2 mph54%30.15 "Hg10 mi
10:20 AM77 °FSunny.2 mph51%30.12 "Hg10 mi
9:50 AM75 °FSunny.2 mph54%30.12 "Hg10 mi
9:20 AM73 °FSunny.2 mph53%30.12 "Hg10 mi
8:50 AM72 °FSunny.2 mph61%30.12 "Hg10 mi
8:20 AM68 °FSunny.3 mph73%30.12 "Hg10 mi
7:50 AM68 °FSunny.2 mph64%30.12 "Hg10 mi
7:20 AM64 °FSunny.2 mph83%30.12 "Hg10 mi
6:50 AM63 °FSunny.1 mph77%30.12 "Hg10 mi
6:20 AM61 °FClear.1 mph83%30.12 "Hg10 mi
5:50 AM59 °FClear.1 mph82%30.12 "Hg10 mi
5:20 AM59 °FClear.2 mph82%30.12 "Hg10 mi
4:50 AM59 °FClear.5 mph82%30.12 "Hg10 mi
4:20 AM61 °FPassing clouds.3 mph77%30.12 "HgN/A
3:50 AM61 °FClear.2 mph77%30.12 "Hg10 mi
3:20 AM63 °FClear.2 mph73%30.12 "Hg10 mi
2:50 AM63 °FClear.2 mph73%30.12 "Hg10 mi
2:20 AM64 °FClear.2 mph68%30.12 "Hg10 mi
1:50 AM64 °FClear.3 mph68%30.12 "Hg10 mi
1:20 AM64 °FClear.1 mph73%30.12 "Hg10 mi
12:50 AM66 °FClear.1 mph64%30.12 "Hg10 mi
12:20 AM68 °FClear.2 mph60%30.12 "Hg10 mi
11:50 PM
Tue, Jun 30
68 °FPassing clouds.3 mph64%30.12 "HgN/A
11:20 PM72 °FClear.2 mph53%30.12 "Hg10 mi
10:50 PM72 °FClear.1 mph57%30.12 "Hg10 mi
10:20 PM73 °FSunny.2 mph50%30.12 "Hg10 mi
9:50 PM75 °FSunny.5 mph47%30.12 "Hg10 mi
9:20 PM77 °FSunny.5 mph44%30.12 "Hg10 mi
8:50 PM79 °FSunny.7 mph45%30.09 "Hg10 mi
8:20 PM81 °FSunny.7 mph39%30.09 "Hg10 mi
7:50 PM82 °FSunny.6 mph32%30.09 "Hg10 mi
6:50 PM84 °FPassing clouds.5 mph31%30.09 "HgN/A
6:20 PM84 °FPassing clouds.3 mph33%30.09 "HgN/A
5:50 PM84 °FPassing clouds.6 mph31%30.12 "HgN/A
Weather by CustomWeather, © 2015

See weather overviewHow to use our weather pages